EW8555 Weather Reports


time (UTC)temp
C
wind
direction
speed
KPH
gust
KPH
rain 1hr
cm
rain 24hr
cm
rain mn
cm
humidity
%
barometer
mb
20260506033017 11 5 6.4 14.5 0.13 1.22 1.17 96 1002.3
20260506031530 11 44 4.8 16.1 0.10 1.17 1.12 96 1002.5
20260506030013 11 24 3.2 16.1 0.18 1.17 1.12 96 1002.6
20260506024517 11 360 3.2 16.1 0.18 1.12 1.07 96 1002.8
20260506023010 11 9 3.2 9.7 0.18 1.09 1.04 96 1002.9
20260506021509 11 26 4.8 9.7 0.20 1.07 1.02 96 1003.1
20260506020005 11 54 6.4 9.7 0.18 0.99 0.94 96 1003.2
20260506014506 11 55 4.8 16.1 0.23 0.94 0.89 95 1003.4
20260506013003 11 5 3.2 14.5 0.23 0.89 0.84 95 1003.4
20260506011502 11 58 4.8 14.5 0.36 0.86 0.81 95 1003.4
20260506010000 12 10 4.8 14.5 0.41 0.81 0.76 95 1003.3
20260506004600 12 360 4.8 9.7 0.41 0.71 0.66 95 1003.4
20260506003056 12 51 6.4 14.5 0.43 0.66 0.61 94 1003.8
20260506001554 12 48 8.0 16.1 0.33 0.51 0.46 94 1003.9
20260506000050 12 67 4.8 12.9 0.25 0.41 0.36 94 1004.1
20260505234556 12 9 6.4 14.5 0.15 0.30 0.25 94 1004.4
20260505233048 12 48 4.8 11.3 0.10 0.23 0.18 93 1004.5
20260505231550 12 53 6.4 11.3 0.10 0.18 0.13 93 1004.7
20260505230040 12 56 4.8 8.0 0.10 0.15 0.10 93 1004.7
20260505224539 12 47 3.2 8.0 0.10 0.15 0.10 92 1004.8
20260505223048 13 55 4.8 14.5 0.08 0.13 0.08 91 1004.9
20260505221536 13 49 3.2 14.5 0.03 0.08 0.03 90 1004.9
20260505220039 13 57 3.2 14.5 0.00 0.05 0.00 88 1004.8
20260505214536 13 28 6.4 14.5 0.00 0.05 0.05 87 1004.8
20260505213030 14 43 8.0 20.9 0.00 0.05 0.05 87 1004.7
20260505211528 14 51 6.4 19.3 0.00 0.05 0.05 86 1004.7
20260505210029 15 42 4.8 14.5 0.00 0.05 0.05 86 1004.7
20260505204533 15 55 4.8 14.5 0.00 0.05 0.05 86 1004.7
20260505203031 15 51 9.7 16.1 0.00 0.05 0.05 86 1004.7
20260505201525 15 43 4.8 8.0 0.00 0.05 0.05 85 1004.8
20260505200036 15 59 3.2 6.4 0.03 0.05 0.05 85 1004.8
20260505194631 15 80 4.8 8.0 0.03 0.05 0.05 84 1004.8
20260505193023 15 71 3.2 9.7 0.03 0.05 0.05 84 1004.7
20260505191523 16 67 4.8 11.3 0.03 0.05 0.05 83 1004.8
20260505190024 16 5 4.8 11.3 0.00 0.03 0.03 82 1004.7
20260505184624 16 36 4.8 9.7 0.00 0.03 0.03 81 1004.7
20260505183020 16 44 6.4 14.5 0.00 0.03 0.03 80 1004.7
20260505181520 17 39 4.8 11.3 0.00 0.03 0.03 80 1004.7
20260505180019 17 44 8.0 19.3 0.00 0.03 0.03 78 1004.6
20260505174520 17 30 8.0 19.3 0.00 0.03 0.03 76 1004.5
20260505173017 18 5 6.4 14.5 0.00 0.03 0.03 73 1004.6
20260505171521 18 16 4.8 8.0 0.00 0.03 0.03 70 1004.5
20260505170018 18 11 3.2 8.0 0.00 0.03 0.03 70 1004.7
20260505164514 18 63 3.2 9.7 0.00 0.03 0.03 69 1004.8
20260505163012 18 5 6.4 12.9 0.00 0.03 0.03 69 1004.8
20260505161510 18 9 3.2 6.4 0.00 0.03 0.03 71 1005.0
20260505153006 18 48 1.6 8.0 0.00 0.03 0.03 72 1005.4
20260505151505 18 45 3.2 8.0 0.00 0.03 0.03 72 1005.4
20260505130109 18 53 1.6 6.4 0.00 0.03 0.03 77 1006.1
20260505124556 18 86 3.2 9.7 0.00 0.03 0.03 78 1006.4
20260505123047 17 167 3.2 6.4 0.00 0.03 0.03 82 1006.5
20260505121547 17 62 0.0 6.4 0.00 0.03 0.03 86 1006.6
20260505120039 16 165 1.6 8.0 0.00 0.03 0.03 88 1006.7
20260505114537 16 142 1.6 4.8 0.00 0.03 0.03 88 1006.8
20260505113036 16 147 1.6 3.2 0.00 0.03 0.03 89 1006.9
20260505111539 16 147 0.0 4.8 0.00 0.03 0.03 88 1007.0
20260505101533 16 121 1.6 4.8 0.03 0.03 0.03 87 1007.1
20260505100032 15 213 0.0 1.6 0.03 0.03 0.03 87 1007.2
20260505094534 15 213 1.6 4.8 0.00 0.00 0.00 86 1007.2
20260505093029 15 330 1.6 3.2 0.00 0.00 0.00 85 1007.1
20260505091529 15 329 0.0 3.2 0.00 0.00 0.00 85 1007.1
20260505090030 15 329 0.0 1.6 0.00 0.00 0.00 85 1007.2
20260505084527 15 329 1.6 3.2 0.00 0.00 0.00 86 1007.3
20260505083025 15 329 0.0 3.2 0.00 0.00 0.00 86 1007.3
20260505081539 15 329 1.6 4.8 0.00 0.00 0.00 87 1007.3
20260505080023 14 329 1.6 3.2 0.00 0.00 0.00 88 1007.5
20260505074522 14 329 0.0 4.8 0.00 0.00 0.00 89 1007.5
20260505073025 13 98 0.0 4.8 0.00 0.00 0.00 90 1007.5
20260505071542 13 98 0.0 3.2 0.00 0.00 0.00 90 1007.5
20260505070020 13 97 3.2 6.4 0.00 0.00 0.00 89 1007.6
20260505064524 13 95 3.2 11.3 0.00 0.00 0.00 89 1007.5
20260505063019 13 96 3.2 6.4 0.00 0.00 0.00 89 1007.5
20260505061519 13 96 1.6 4.8 0.00 0.00 0.00 89 1007.6
20260505060019 13 338 0.0 0.0 0.00 0.00 0.00 88 1007.6
20260505054517 13 338 1.6 3.2 0.00 0.00 0.00 88 1007.7
20260505053024 13 338 0.0 1.6 0.00 0.00 0.00 88 1007.7
20260505051529 13 338 0.0 1.6 0.00 0.00 0.00 88 1007.7
20260505041516 13 338 0.0 3.2 0.00 0.00 0.00 86 1007.7
20260505040011 13 338 1.6 4.8 0.00 0.00 0.00 85 1007.6
20260505034509 13 338 0.0 0.0 0.00 0.00 0.00 85 1007.7